カタログに戻る

FENGYUN 1C DEB

運用中SSO
NORAD 30259·DEBRIS·🇨🇳 China

打ち上げ May 10, 1999 から Taiyuan Satellite Launch Center

Loading…

次のパス (今後24時間)

TLE

最新Source: Space-Track

元期: Sep 14, 2026, 01:51 UTC

1 30259U 99025XU  26257.07731568  .00000822  00000-0  14842-3 0  9997
2 30259  98.7279 125.5143 0240674 152.3233   6.7796 14.52396742 34696

AllMySatでFENGYUN 1C DEBをリアルタイム追跡

Download on the App Store